Time,TemperatureF,DewpointF,PressureIn,WindDirection,WindDirectionDegrees,WindSpeedMPH,WindSpeedGustMPH,Humidity,HourlyPrecipIn,Conditions,Clouds,dailyrainin,SoftwareType,DateUTC
2013-07-17 00:00:00,73.1,71.0,29.30,WNW,300,0.0,1.0,93,0.00,,,0.08,Wunderground v.1.15,2013-07-17 04:00:00,
2013-07-17 00:02:00,73.1,71.0,29.30,WNW,301,0.0,1.0,93,0.00,,,0.00,weatherlink.com 1.10,2013-07-17 04:02:00,
2013-07-17 00:04:00,73.1,71.0,29.30,WNW,300,0.0,1.0,93,0.00,,,0.00,Wunderground v.1.15,2013-07-17 04:04:00,
2013-07-17 00:09:00,73.0,71.2,29.30,WNW,300,0.0,0.0,94,0.00,,,0.00,Wunderground v.1.15,2013-07-17 04:09:00,
2013-07-17 00:14:00,72.9,71.1,29.30,WNW,300,0.0,0.0,94,0.00,,,0.00,Wunderground v.1.15,2013-07-17 04:14:00,
2013-07-17 00:17:00,72.8,71.0,29.30,WNW,300,0.0,1.0,94,0.00,,,0.00,weatherlink.com 1.10,2013-07-17 04:17:00,
2013-07-17 00:19:00,72.7,70.6,29.30,WNW,301,0.0,0.0,93,0.00,,,0.00,Wunderground v.1.15,2013-07-17 04:19:00,
2013-07-17 00:24:00,72.6,70.8,29.30,WNW,300,0.0,0.0,94,0.00,,,0.00,Wunderground v.1.15,2013-07-17 04:24:00,
2013-07-17 00:29:00,72.5,70.7,29.30,WNW,300,0.0,0.0,94,0.00,,,0.00,Wunderground v.1.15,2013-07-17 04:29:00,
2013-07-17 00:34:00,72.5,70.7,29.30,WNW,301,0.0,1.0,94,0.00,,,0.00,Wunderground v.1.15,2013-07-17 04:34:00,
2013-07-17 00:39:00,72.4,70.6,29.30,WNW,300,0.0,1.0,94,0.00,,,0.00,Wunderground v.1.15,2013-07-17 04:39:00,
2013-07-17 00:44:00,72.3,70.5,29.30,WNW,300,0.0,1.0,94,0.00,,,0.00,Wunderground v.1.15,2013-07-17 04:44:00,
2013-07-17 00:54:00,72.0,70.2,29.30,WNW,300,0.0,1.0,94,0.00,,,0.00,Wunderground v.1.15,2013-07-17 04:54:00,
2013-07-17 01:00:00,71.9,70.1,29.30,WNW,300,0.0,0.0,94,0.00,,,0.00,Wunderground v.1.15,2013-07-17 05:00:00,
2013-07-17 01:04:00,71.8,70.0,29.30,WNW,300,0.0,0.0,94,0.00,,,0.00,Wunderground v.1.15,2013-07-17 05:04:00,
2013-07-17 01:09:00,71.7,70.2,29.30,WNW,300,0.0,0.0,95,0.00,,,0.00,Wunderground v.1.15,2013-07-17 05:09:00,
2013-07-17 01:14:00,71.6,70.1,29.29,WNW,300,0.0,0.0,95,0.00,,,0.00,Wunderground v.1.15,2013-07-17 05:14:00,
2013-07-17 01:19:00,71.6,70.1,29.29,WNW,300,0.0,0.0,95,0.00,,,0.00,Wunderground v.1.15,2013-07-17 05:19:00,
2013-07-17 01:24:00,71.5,70.0,29.29,WNW,300,0.0,0.0,95,0.00,,,0.00,Wunderground v.1.15,2013-07-17 05:24:00,
2013-07-17 01:29:00,71.5,70.0,29.29,WNW,300,0.0,0.0,95,0.00,,,0.00,Wunderground v.1.15,2013-07-17 05:29:00,
2013-07-17 01:34:00,71.4,69.9,29.29,North,360,0.0,1.0,95,0.00,,,0.00,Wunderground v.1.15,2013-07-17 05:34:00,
2013-07-17 01:39:00,71.4,69.9,29.28,WNW,300,0.0,1.0,95,0.00,,,0.00,Wunderground v.1.15,2013-07-17 05:39:00,
2013-07-17 01:47:00,71.2,70.0,29.28,WNW,299,0.0,0.0,95,0.00,,,0.00,weatherlink.com 1.10,2013-07-17 05:47:00,
2013-07-17 01:54:00,71.1,69.6,29.28,WNW,301,0.0,1.0,95,0.00,,,0.00,Wunderground v.1.15,2013-07-17 05:54:00,
2013-07-17 02:00:00,71.0,69.5,29.28,WNW,300,0.0,0.0,95,0.00,,,0.00,Wunderground v.1.15,2013-07-17 06:00:00,
2013-07-17 02:09:00,71.0,69.5,29.28,WNW,300,0.0,0.0,95,0.00,,,0.00,Wunderground v.1.15,2013-07-17 06:09:00,
2013-07-17 02:17:00,70.9,70.0,29.28,North,360,0.0,0.0,95,0.00,,,0.00,weatherlink.com 1.10,2013-07-17 06:17:00,
2013-07-17 02:24:00,70.9,69.4,29.28,WNW,300,0.0,0.0,95,0.00,,,0.00,Wunderground v.1.15,2013-07-17 06:24:00,
2013-07-17 02:29:00,70.8,69.3,29.28,WNW,300,0.0,0.0,95,0.00,,,0.00,Wunderground v.1.15,2013-07-17 06:29:00,
2013-07-17 02:39:00,70.8,69.3,29.28,North,360,0.0,0.0,95,0.00,,,0.00,Wunderground v.1.15,2013-07-17 06:39:00,
2013-07-17 02:47:00,70.7,69.0,29.28,WNW,299,0.0,1.0,95,0.00,,,0.00,weatherlink.com 1.10,2013-07-17 06:47:00,
2013-07-17 02:54:00,70.6,69.1,29.28,WNW,300,0.0,0.0,95,0.00,,,0.00,Wunderground v.1.15,2013-07-17 06:54:00,
2013-07-17 03:00:00,70.6,69.1,29.28,WNW,300,0.0,0.0,95,0.00,,,0.00,Wunderground v.1.15,2013-07-17 07:00:00,
2013-07-17 03:10:00,70.6,69.4,29.27,WNW,300,0.0,0.0,96,0.00,,,0.00,Wunderground v.1.15,2013-07-17 07:10:00,
2013-07-17 03:18:00,70.5,69.0,29.27,WNW,300,0.0,0.0,96,0.00,,,0.00,weatherlink.com 1.10,2013-07-17 07:18:00,
2013-07-17 03:25:00,70.5,69.3,29.27,WNW,300,0.0,0.0,96,0.00,,,0.00,Wunderground v.1.15,2013-07-17 07:25:00,
2013-07-17 03:33:00,70.4,69.0,29.27,WNW,301,0.0,1.0,96,0.00,,,0.00,weatherlink.com 1.10,2013-07-17 07:33:00,
2013-07-17 03:40:00,70.3,69.1,29.28,WNW,300,0.0,0.0,96,0.00,,,0.00,Wunderground v.1.15,2013-07-17 07:40:00,
2013-07-17 03:45:00,70.3,69.1,29.28,North,360,0.0,0.0,96,0.00,,,0.00,Wunderground v.1.15,2013-07-17 07:45:00,
2013-07-17 03:50:00,70.2,69.0,29.28,North,360,0.0,0.0,96,0.00,,,0.00,Wunderground v.1.15,2013-07-17 07:50:00,
2013-07-17 03:55:00,70.1,68.9,29.28,WNW,300,0.0,0.0,96,0.00,,,0.00,Wunderground v.1.15,2013-07-17 07:55:00,
2013-07-17 04:01:00,70.1,68.9,29.28,North,360,0.0,0.0,96,0.00,,,0.00,Wunderground v.1.15,2013-07-17 08:01:00,
2013-07-17 04:10:00,70.0,68.8,29.27,WNW,300,0.0,0.0,96,0.00,,,0.00,Wunderground v.1.15,2013-07-17 08:10:00,
2013-07-17 04:15:00,69.9,68.7,29.28,North,360,0.0,0.0,96,0.00,,,0.00,Wunderground v.1.15,2013-07-17 08:15:00,
2013-07-17 04:20:00,69.9,68.7,29.28,WNW,300,0.0,0.0,96,0.00,,,0.00,Wunderground v.1.15,2013-07-17 08:20:00,
2013-07-17 04:25:00,69.8,68.6,29.27,WNW,300,0.0,0.0,96,0.00,,,0.00,Wunderground v.1.15,2013-07-17 08:25:00,
2013-07-17 04:33:00,69.8,69.0,29.28,WNW,300,0.0,0.0,96,0.00,,,0.00,weatherlink.com 1.10,2013-07-17 08:33:00,
2013-07-17 04:40:00,69.7,68.5,29.28,WNW,300,0.0,1.0,96,0.00,,,0.00,Wunderground v.1.15,2013-07-17 08:40:00,
2013-07-17 04:45:00,69.7,68.5,29.28,WNW,300,0.0,1.0,96,0.00,,,0.00,Wunderground v.1.15,2013-07-17 08:45:00,
2013-07-17 04:50:00,69.6,68.4,29.28,WNW,300,0.0,1.0,96,0.00,,,0.00,Wunderground v.1.15,2013-07-17 08:50:00,
2013-07-17 04:55:00,69.6,68.4,29.28,WNW,300,0.0,1.0,96,0.00,,,0.00,Wunderground v.1.15,2013-07-17 08:55:00,
2013-07-17 05:01:00,69.5,68.3,29.28,WNW,300,0.0,0.0,96,0.00,,,0.00,Wunderground v.1.15,2013-07-17 09:01:00,
2013-07-17 05:10:00,69.4,68.2,29.28,WNW,300,0.0,0.0,96,0.00,,,0.00,Wunderground v.1.15,2013-07-17 09:10:00,
2013-07-17 05:15:00,69.4,68.2,29.29,WNW,300,0.0,1.0,96,0.00,,,0.00,Wunderground v.1.15,2013-07-17 09:15:00,
2013-07-17 05:20:00,69.4,68.2,29.28,WNW,302,0.0,0.0,96,0.00,,,0.00,Wunderground v.1.15,2013-07-17 09:20:00,
2013-07-17 05:25:00,69.4,68.2,29.29,WNW,300,0.0,0.0,96,0.00,,,0.00,Wunderground v.1.15,2013-07-17 09:25:00,
2013-07-17 05:30:00,69.4,68.2,29.29,WNW,300,0.0,0.0,96,0.00,,,0.00,Wunderground v.1.15,2013-07-17 09:30:00,
2013-07-17 05:40:00,69.4,68.2,29.29,WNW,300,0.0,0.0,96,0.00,,,0.00,Wunderground v.1.15,2013-07-17 09:40:00,
2013-07-17 05:45:00,69.4,68.2,29.29,North,360,0.0,0.0,96,0.00,,,0.00,Wunderground v.1.15,2013-07-17 09:45:00,
2013-07-17 05:50:00,69.4,68.2,29.29,WNW,300,0.0,0.0,96,0.00,,,0.00,Wunderground v.1.15,2013-07-17 09:50:00,
2013-07-17 05:55:00,69.3,68.1,29.29,WNW,300,0.0,0.0,96,0.00,,,0.00,Wunderground v.1.15,2013-07-17 09:55:00,
2013-07-17 06:01:00,69.3,68.1,29.29,WNW,300,0.0,0.0,96,0.00,,,0.00,Wunderground v.1.15,2013-07-17 10:01:00,
2013-07-17 06:10:00,69.3,68.1,29.29,WNW,300,0.0,0.0,96,0.00,,,0.00,Wunderground v.1.15,2013-07-17 10:10:00,
2013-07-17 06:15:00,69.3,68.1,29.29,WNW,300,0.0,0.0,96,0.00,,,0.00,Wunderground v.1.15,2013-07-17 10:15:00,
2013-07-17 06:20:00,69.3,68.1,29.29,WNW,300,0.0,0.0,96,0.00,,,0.00,Wunderground v.1.15,2013-07-17 10:20:00,
2013-07-17 06:25:00,69.2,68.0,29.30,WNW,300,0.0,0.0,96,0.00,,,0.00,Wunderground v.1.15,2013-07-17 10:25:00,
2013-07-17 06:30:00,69.2,68.0,29.30,WNW,300,0.0,0.0,96,0.00,,,0.00,Wunderground v.1.15,2013-07-17 10:30:00,
2013-07-17 06:35:00,69.2,68.0,29.30,WNW,300,0.0,2.0,96,0.00,,,0.00,Wunderground v.1.15,2013-07-17 10:35:00,
2013-07-17 06:45:00,69.0,67.8,29.30,WNW,300,0.0,2.0,96,0.00,,,0.00,Wunderground v.1.15,2013-07-17 10:45:00,
2013-07-17 06:50:00,69.0,67.8,29.30,WNW,300,0.0,2.0,96,0.00,,,0.00,Wunderground v.1.15,2013-07-17 10:50:00,
2013-07-17 06:55:00,68.9,67.7,29.30,WNW,300,0.0,2.0,96,0.00,,,0.00,Wunderground v.1.15,2013-07-17 10:55:00,
2013-07-17 07:01:00,68.9,67.7,29.30,North,360,0.0,0.0,96,0.00,,,0.00,Wunderground v.1.15,2013-07-17 11:01:00,
2013-07-17 07:10:00,68.8,67.6,29.30,WNW,300,0.0,0.0,96,0.00,,,0.00,Wunderground v.1.15,2013-07-17 11:10:00,
2013-07-17 07:15:00,68.9,67.7,29.30,WNW,300,0.0,0.0,96,0.00,,,0.00,Wunderground v.1.15,2013-07-17 11:15:00,
2013-07-17 07:20:00,68.9,67.7,29.30,WNW,300,0.0,0.0,96,0.00,,,0.00,Wunderground v.1.15,2013-07-17 11:20:00,
2013-07-17 07:25:00,69.0,68.1,29.30,WNW,300,0.0,0.0,97,0.00,,,0.00,Wunderground v.1.15,2013-07-17 11:25:00,
2013-07-17 07:30:00,69.0,68.1,29.31,WNW,300,0.0,0.0,97,0.00,,,0.00,Wunderground v.1.15,2013-07-17 11:30:00,
2013-07-17 07:40:00,69.3,68.4,29.30,WNW,300,0.0,1.0,97,0.00,,,0.00,Wunderground v.1.15,2013-07-17 11:40:00,
2013-07-17 07:48:00,69.5,69.0,29.30,WNW,300,0.0,0.0,97,0.00,,,0.00,weatherlink.com 1.10,2013-07-17 11:48:00,
2013-07-17 07:55:00,69.9,69.0,29.31,WNW,300,0.0,1.0,97,0.00,,,0.00,Wunderground v.1.15,2013-07-17 11:55:00,
2013-07-17 08:01:00,70.3,69.4,29.30,WNW,300,0.0,0.0,97,0.00,,,0.00,Wunderground v.1.15,2013-07-17 12:01:00,
2013-07-17 08:10:00,70.9,70.0,29.31,North,360,0.0,0.0,97,0.00,,,0.00,Wunderground v.1.15,2013-07-17 12:10:00,
2013-07-17 08:15:00,71.2,70.3,29.31,WNW,300,0.0,1.0,97,0.00,,,0.00,Wunderground v.1.15,2013-07-17 12:15:00,
2013-07-17 08:20:00,71.5,70.6,29.31,WNW,300,0.0,0.0,97,0.00,,,0.00,Wunderground v.1.15,2013-07-17 12:20:00,
2013-07-17 08:25:00,71.9,71.0,29.31,NNE,33,0.0,0.0,97,0.00,,,0.00,Wunderground v.1.15,2013-07-17 12:25:00,
2013-07-17 08:33:00,72.6,72.0,29.31,NNE,33,0.0,1.0,97,0.00,,,0.00,weatherlink.com 1.10,2013-07-17 12:33:00,
2013-07-17 08:40:00,73.4,72.5,29.31,NE,34,0.0,1.0,97,0.00,,,0.00,Wunderground v.1.15,2013-07-17 12:40:00,
2013-07-17 08:45:00,74.1,72.9,29.31,NNE,33,0.0,1.0,96,0.00,,,0.00,Wunderground v.1.15,2013-07-17 12:45:00,
2013-07-17 08:55:00,75.5,73.3,29.32,NNE,22,0.0,2.0,93,0.00,,,0.00,Wunderground v.1.15,2013-07-17 12:55:00,
2013-07-17 09:01:00,76.2,73.7,29.31,North,360,1.0,1.0,92,0.00,,,0.00,Wunderground v.1.15,2013-07-17 13:01:00,
2013-07-17 09:10:00,77.1,73.6,29.31,North,5,2.0,3.0,89,0.00,,,0.00,Wunderground v.1.15,2013-07-17 13:10:00,
2013-07-17 09:19:00,78.4,74.0,29.32,North,360,3.0,4.0,86,0.00,,,0.00,weatherlink.com 1.10,2013-07-17 13:19:00,
2013-07-17 09:25:00,79.2,74.3,29.32,North,360,2.0,2.0,85,0.00,,,0.00,Wunderground v.1.15,2013-07-17 13:25:00,
2013-07-17 09:34:00,79.9,75.0,29.31,NW,313,3.0,3.0,85,0.00,,,0.00,weatherlink.com 1.10,2013-07-17 13:34:00,
2013-07-17 09:40:00,80.3,75.0,29.31,NNW,334,2.0,2.0,84,0.00,,,0.00,Wunderground v.1.15,2013-07-17 13:40:00,
2013-07-17 09:45:00,80.4,75.1,29.31,NW,318,2.0,3.0,84,0.00,,,0.00,Wunderground v.1.15,2013-07-17 13:45:00,
2013-07-17 09:50:00,80.6,75.0,29.31,NNE,22,1.0,3.0,83,0.00,,,0.00,Wunderground v.1.15,2013-07-17 13:50:00,
2013-07-17 10:01:00,81.3,75.6,29.31,North,351,1.0,1.0,83,0.00,,,0.00,Wunderground v.1.15,2013-07-17 14:01:00,
2013-07-17 10:10:00,82.4,76.3,29.31,NNE,13,1.0,1.0,82,0.00,,,0.00,Wunderground v.1.15,2013-07-17 14:10:00,
2013-07-17 10:15:00,82.8,76.4,29.31,North,349,2.0,2.0,81,0.00,,,0.00,Wunderground v.1.15,2013-07-17 14:15:00,
2013-07-17 10:20:00,82.7,75.9,29.31,NNW,331,2.0,2.0,80,0.00,,,0.00,Wunderground v.1.15,2013-07-17 14:20:00,
2013-07-17 10:25:00,82.7,75.9,29.31,NNW,331,2.0,2.0,80,0.00,,,0.00,Wunderground v.1.15,2013-07-17 14:25:00,
2013-07-17 10:34:00,83.1,76.0,29.31,North,349,3.0,4.0,80,0.00,,,0.00,weatherlink.com 1.10,2013-07-17 14:34:00,
2013-07-17 10:40:00,83.4,75.8,29.30,WSW,238,2.0,2.0,78,0.00,,,0.00,Wunderground v.1.15,2013-07-17 14:40:00,
2013-07-17 10:45:00,83.4,76.6,29.30,North,360,2.0,4.0,80,0.00,,,0.00,Wunderground v.1.15,2013-07-17 14:45:00,
2013-07-17 10:50:00,84.0,76.4,29.31,NNE,18,2.0,2.0,78,0.00,,,0.00,Wunderground v.1.15,2013-07-17 14:50:00,
2013-07-17 10:55:00,84.3,76.7,29.31,NNW,345,1.0,3.0,78,0.00,,,0.00,Wunderground v.1.15,2013-07-17 14:55:00,
2013-07-17 11:01:00,84.3,75.9,29.31,North,351,1.0,1.0,76,0.00,,,0.00,Wunderground v.1.15,2013-07-17 15:01:00,
2013-07-17 11:10:00,84.9,77.3,29.30,NW,315,2.0,2.0,78,0.00,,,0.00,Wunderground v.1.15,2013-07-17 15:10:00,
2013-07-17 11:15:00,85.0,76.6,29.30,NNW,334,2.0,2.0,76,0.00,,,0.00,Wunderground v.1.15,2013-07-17 15:15:00,
2013-07-17 11:20:00,85.1,76.3,29.30,ENE,63,3.0,3.0,75,0.00,,,0.00,Wunderground v.1.15,2013-07-17 15:20:00,
2013-07-17 11:25:00,85.3,76.5,29.31,West,268,3.0,3.0,75,0.00,,,0.00,Wunderground v.1.15,2013-07-17 15:25:00,
2013-07-17 11:30:00,85.6,76.8,29.31,NNW,327,2.0,2.0,75,0.00,,,0.00,Wunderground v.1.15,2013-07-17 15:30:00,
2013-07-17 11:40:00,86.2,76.9,29.31,NE,39,1.0,4.0,74,0.00,,,0.00,Wunderground v.1.15,2013-07-17 15:40:00,
2013-07-17 11:45:00,86.4,78.3,29.31,NE,53,2.0,4.0,77,0.00,,,0.00,Wunderground v.1.15,2013-07-17 15:45:00,
2013-07-17 11:50:00,86.5,78.8,29.30,ENE,65,2.0,2.0,78,0.00,,,0.00,Wunderground v.1.15,2013-07-17 15:50:00,
2013-07-17 11:55:00,87.0,78.1,29.30,North,355,2.0,4.0,75,0.00,,,0.00,Wunderground v.1.15,2013-07-17 15:55:00,
2013-07-17 12:01:00,87.2,77.9,29.30,ESE,115,2.0,2.0,74,0.00,,,0.00,Wunderground v.1.15,2013-07-17 16:01:00,
2013-07-17 12:10:00,87.1,77.4,29.30,WNW,284,2.0,2.0,73,0.00,,,0.00,Wunderground v.1.15,2013-07-17 16:10:00,
2013-07-17 12:15:00,87.2,77.5,29.29,NNW,327,1.0,4.0,73,0.00,,,0.00,Wunderground v.1.15,2013-07-17 16:15:00,
2013-07-17 12:20:00,87.5,78.2,29.29,NW,325,2.0,2.0,74,0.00,,,0.00,Wunderground v.1.15,2013-07-17 16:20:00,
2013-07-17 12:25:00,88.0,78.3,29.29,ENE,57,2.0,2.0,73,0.00,,,0.00,Wunderground v.1.15,2013-07-17 16:25:00,
2013-07-17 12:30:00,88.3,78.1,29.29,NE,50,2.0,2.0,72,0.00,,,0.00,Wunderground v.1.15,2013-07-17 16:30:00,
2013-07-17 12:35:00,88.5,78.3,29.29,NW,325,1.0,6.0,72,0.00,,,0.00,Wunderground v.1.15,2013-07-17 16:35:00,
2013-07-17 12:45:00,89.0,77.5,29.28,ENE,73,3.0,6.0,69,0.00,,,0.00,Wunderground v.1.15,2013-07-17 16:45:00,
2013-07-17 12:50:00,89.3,79.1,29.28,ENE,62,3.0,6.0,72,0.00,,,0.00,Wunderground v.1.15,2013-07-17 16:50:00,
2013-07-17 12:55:00,89.5,78.0,29.28,NW,316,3.0,6.0,69,0.00,,,0.00,Wunderground v.1.15,2013-07-17 16:55:00,
2013-07-17 13:01:00,89.6,77.6,29.28,ESE,107,3.0,3.0,68,0.00,,,0.00,Wunderground v.1.15,2013-07-17 17:01:00,
2013-07-17 13:10:00,89.6,77.6,29.28,North,10,2.0,4.0,68,0.00,,,0.00,Wunderground v.1.15,2013-07-17 17:10:00,
2013-07-17 13:15:00,89.7,78.2,29.28,WNW,283,2.0,4.0,69,0.00,,,0.00,Wunderground v.1.15,2013-07-17 17:15:00,
2013-07-17 13:20:00,90.0,78.0,29.28,North,355,2.0,5.0,68,0.00,,,0.00,Wunderground v.1.15,2013-07-17 17:20:00,
2013-07-17 13:25:00,90.1,78.1,29.27,ENE,76,3.0,5.0,68,0.00,,,0.00,Wunderground v.1.15,2013-07-17 17:25:00,
2013-07-17 13:30:00,90.1,77.2,29.27,NE,54,3.0,3.0,66,0.00,,,0.00,Wunderground v.1.15,2013-07-17 17:30:00,
2013-07-17 13:35:00,90.1,78.1,29.27,East,88,2.0,5.0,68,0.00,,,0.00,Wunderground v.1.15,2013-07-17 17:35:00,
2013-07-17 13:40:00,90.1,76.3,29.27,North,350,2.0,6.0,64,0.00,,,0.00,Wunderground v.1.15,2013-07-17 17:40:00,
2013-07-17 13:50:00,89.9,78.4,29.27,ENE,61,3.0,3.0,69,0.00,,,0.00,Wunderground v.1.15,2013-07-17 17:50:00,
2013-07-17 13:55:00,90.2,77.8,29.26,NW,321,2.0,5.0,67,0.00,,,0.00,Wunderground v.1.15,2013-07-17 17:55:00,
2013-07-17 14:01:00,90.0,77.1,29.26,NE,46,3.0,3.0,66,0.00,,,0.00,Wunderground v.1.15,2013-07-17 18:01:00,
2013-07-17 14:10:00,90.0,76.6,29.26,NNW,337,2.0,5.0,65,0.00,,,0.00,Wunderground v.1.15,2013-07-17 18:10:00,
2013-07-17 14:20:00,90.8,77.0,29.25,NNW,333,2.0,8.0,65,0.00,,,0.00,weatherlink.com 1.10,2013-07-17 18:20:00,
2013-07-17 14:25:00,91.1,76.7,29.25,NE,38,2.0,3.0,63,0.00,,,0.00,Wunderground v.1.15,2013-07-17 18:25:00,
2013-07-17 14:30:00,91.3,77.4,29.25,NNW,336,2.0,3.0,64,0.00,,,0.00,Wunderground v.1.15,2013-07-17 18:30:00,
2013-07-17 14:35:00,91.5,76.6,29.25,ENE,70,3.0,7.0,62,0.00,,,0.00,Wunderground v.1.15,2013-07-17 18:35:00,
2013-07-17 14:45:00,92.0,76.6,29.24,NW,313,2.0,7.0,61,0.00,,,0.00,Wunderground v.1.15,2013-07-17 18:45:00,
2013-07-17 14:51:00,92.5,78.0,29.24,NW,317,3.0,5.0,62,0.00,,,0.00,weatherlink.com 1.10,2013-07-17 18:51:00,
2013-07-17 15:00:00,92.2,76.3,29.24,NW,314,2.0,3.0,60,0.00,,,0.00,Wunderground v.1.15,2013-07-17 19:00:00,
2013-07-17 15:06:00,92.1,77.0,29.23,NNW,334,4.0,7.0,62,0.00,,,0.00,weatherlink.com 1.10,2013-07-17 19:06:00,
2013-07-17 15:15:00,92.6,76.2,29.23,NW,318,2.0,2.0,59,0.00,,,0.00,Wunderground v.1.15,2013-07-17 19:15:00,
2013-07-17 15:21:00,92.6,77.0,29.23,NW,318,3.0,5.0,61,0.00,,,0.00,weatherlink.com 1.10,2013-07-17 19:21:00,
2013-07-17 15:30:00,91.8,77.9,29.22,SSW,209,2.0,2.0,64,0.00,,,0.00,Wunderground v.1.15,2013-07-17 19:30:00,
2013-07-17 15:39:00,91.7,79.0,29.22,NNE,17,3.0,5.0,67,0.00,,,0.00,weatherlink.com 1.10,2013-07-17 19:39:00,
2013-07-17 15:45:00,92.2,77.3,29.21,NNW,348,2.0,8.0,62,0.00,,,0.00,Wunderground v.1.15,2013-07-17 19:45:00,
2013-07-17 15:50:00,92.7,76.3,29.21,ENE,57,2.0,8.0,59,0.00,,,0.00,Wunderground v.1.15,2013-07-17 19:50:00,
2013-07-17 16:00:00,93.2,77.2,29.20,East,86,1.0,2.0,60,0.00,,,0.00,Wunderground v.1.15,2013-07-17 20:00:00,
2013-07-17 16:06:00,93.2,78.0,29.21,NNE,32,2.0,7.0,62,0.00,,,0.00,weatherlink.com 1.10,2013-07-17 20:06:00,
2013-07-17 16:15:00,93.2,74.6,29.20,SE,127,3.0,5.0,55,0.00,,,0.00,Wunderground v.1.15,2013-07-17 20:15:00,
2013-07-17 16:21:00,93.4,76.0,29.21,NW,325,2.0,4.0,57,0.00,,,0.00,weatherlink.com 1.10,2013-07-17 20:21:00,
2013-07-17 16:30:00,92.1,77.7,29.20,North,355,2.0,3.0,63,0.00,,,0.00,Wunderground v.1.15,2013-07-17 20:30:00,
2013-07-17 16:35:00,92.6,76.2,29.20,West,263,2.0,7.0,59,0.00,,,0.00,Wunderground v.1.15,2013-07-17 20:35:00,
2013-07-17 16:40:00,92.8,76.4,29.19,WNW,296,2.0,7.0,59,0.00,,,0.00,Wunderground v.1.15,2013-07-17 20:40:00,
2013-07-17 16:45:00,93.0,76.0,29.19,NE,48,2.0,7.0,58,0.00,,,0.00,Wunderground v.1.15,2013-07-17 20:45:00,
2013-07-17 16:50:00,93.0,77.6,29.18,NNE,25,2.0,2.0,61,0.00,,,0.00,Wunderground v.1.15,2013-07-17 20:50:00,
2013-07-17 16:55:00,93.3,76.3,29.18,NW,306,2.0,7.0,58,0.00,,,0.00,Wunderground v.1.15,2013-07-17 20:55:00,
2013-07-17 17:00:00,93.5,76.0,29.18,NNW,348,3.0,3.0,57,0.00,,,0.00,Wunderground v.1.15,2013-07-17 21:00:00,
2013-07-17 17:06:00,93.7,75.0,29.17,North,5,1.0,5.0,55,0.00,,,0.00,weatherlink.com 1.10,2013-07-17 21:06:00,
2013-07-17 17:15:00,93.1,75.6,29.17,NW,306,2.0,4.0,57,0.00,,,0.00,Wunderground v.1.15,2013-07-17 21:15:00,
2013-07-17 17:20:00,93.0,77.1,29.17,East,92,3.0,3.0,60,0.00,,,0.00,Wunderground v.1.15,2013-07-17 21:20:00,
2013-07-17 17:25:00,92.7,75.2,29.17,ENE,65,2.0,3.0,57,0.00,,,0.00,Wunderground v.1.15,2013-07-17 21:25:00,
2013-07-17 17:30:00,92.1,75.2,29.17,North,360,2.0,3.0,58,0.00,,,0.00,Wunderground v.1.15,2013-07-17 21:30:00,
2013-07-17 17:36:00,90.9,76.0,29.17,North,360,0.0,4.0,61,0.00,,,0.00,weatherlink.com 1.10,2013-07-17 21:36:00,
2013-07-17 17:45:00,89.4,75.6,29.17,NNE,27,1.0,7.0,64,0.00,,,0.00,Wunderground v.1.15,2013-07-17 21:45:00,
2013-07-17 17:50:00,88.9,75.6,29.18,NNE,27,1.0,1.0,65,0.00,,,0.00,Wunderground v.1.15,2013-07-17 21:50:00,
2013-07-17 17:55:00,88.4,76.0,29.17,NNE,27,0.0,7.0,67,0.00,,,0.00,Wunderground v.1.15,2013-07-17 21:55:00,
2013-07-17 18:00:00,87.9,76.5,29.17,NNE,27,0.0,0.0,69,0.00,,,0.00,Wunderground v.1.15,2013-07-17 22:00:00,
2013-07-17 18:06:00,87.6,76.0,29.17,NNE,27,1.0,2.0,69,0.00,,,0.00,weatherlink.com 1.10,2013-07-17 22:06:00,
2013-07-17 18:15:00,87.1,77.8,29.17,NNE,27,0.0,0.0,74,0.00,,,0.00,Wunderground v.1.15,2013-07-17 22:15:00,
2013-07-17 18:20:00,86.8,78.7,29.17,NNE,27,0.0,1.0,77,0.00,,,0.00,Wunderground v.1.15,2013-07-17 22:20:00,
2013-07-17 18:25:00,86.4,78.7,29.17,NNE,27,0.0,1.0,78,0.00,,,0.00,Wunderground v.1.15,2013-07-17 22:25:00,
2013-07-17 18:30:00,86.0,78.3,29.17,NNE,27,1.0,1.0,78,0.00,,,0.00,Wunderground v.1.15,2013-07-17 22:30:00,
2013-07-17 18:35:00,85.8,78.1,29.17,NNE,27,1.0,2.0,78,0.00,,,0.00,Wunderground v.1.15,2013-07-17 22:35:00,
2013-07-17 18:45:00,85.6,77.6,29.18,NNE,26,1.0,5.0,77,0.00,,,0.00,Wunderground v.1.15,2013-07-17 22:45:00,
2013-07-17 18:50:00,85.4,77.0,29.18,NNE,16,1.0,5.0,76,0.00,,,0.00,Wunderground v.1.15,2013-07-17 22:50:00,
2013-07-17 18:55:00,85.0,76.2,29.18,NNE,16,1.0,5.0,75,0.00,,,0.00,Wunderground v.1.15,2013-07-17 22:55:00,
2013-07-17 19:00:00,84.6,76.2,29.19,NNE,16,0.0,0.0,76,0.00,,,0.00,Wunderground v.1.15,2013-07-17 23:00:00,
2013-07-17 19:06:00,84.4,77.0,29.19,NNE,16,0.0,1.0,79,0.00,,,0.00,weatherlink.com 1.10,2013-07-17 23:06:00,
2013-07-17 19:15:00,83.8,76.6,29.19,NNE,16,0.0,0.0,79,0.00,,,0.00,Wunderground v.1.15,2013-07-17 23:15:00,
2013-07-17 19:20:00,83.7,76.9,29.20,NNE,16,0.0,0.0,80,0.00,,,0.00,Wunderground v.1.15,2013-07-17 23:20:00,
2013-07-17 19:25:00,83.7,76.9,29.20,NNE,16,0.0,0.0,80,0.00,,,0.00,Wunderground v.1.15,2013-07-17 23:25:00,
2013-07-17 19:30:00,83.5,77.4,29.20,NNE,16,0.0,0.0,82,0.00,,,0.00,Wunderground v.1.15,2013-07-17 23:30:00,
2013-07-17 19:35:00,83.2,76.8,29.20,NNE,16,0.0,3.0,81,0.00,,,0.00,Wunderground v.1.15,2013-07-17 23:35:00,
2013-07-17 19:40:00,83.0,76.9,29.20,NNE,16,0.0,3.0,82,0.00,,,0.00,Wunderground v.1.15,2013-07-17 23:40:00,
2013-07-17 19:50:00,82.7,77.0,29.20,NNE,16,0.0,3.0,83,0.00,,,0.00,Wunderground v.1.15,2013-07-17 23:50:00,
2013-07-17 19:55:00,82.5,76.8,29.20,NNE,16,0.0,3.0,83,0.00,,,0.00,Wunderground v.1.15,2013-07-17 23:55:00,
2013-07-17 20:00:00,82.4,77.1,29.19,NNE,16,0.0,0.0,84,0.00,,,0.00,Wunderground v.1.15,2013-07-18 00:00:00,
2013-07-17 20:06:00,82.2,77.0,29.19,NNE,16,0.0,1.0,85,0.00,,,0.00,weatherlink.com 1.10,2013-07-18 00:06:00,
2013-07-17 20:15:00,81.7,76.7,29.19,NNE,16,0.0,0.0,85,0.00,,,0.00,Wunderground v.1.15,2013-07-18 00:15:00,
2013-07-17 20:22:00,81.4,77.0,29.20,NNE,17,0.0,1.0,86,0.00,,,0.00,weatherlink.com 1.10,2013-07-18 00:22:00,
2013-07-17 20:30:00,81.1,76.9,29.20,NNE,16,0.0,0.0,87,0.00,,,0.00,Wunderground v.1.15,2013-07-18 00:30:00,
2013-07-17 20:35:00,81.0,77.1,29.20,NNE,16,0.0,1.0,88,0.00,,,0.00,Wunderground v.1.15,2013-07-18 00:35:00,
2013-07-17 20:45:00,81.0,76.1,29.20,North,360,1.0,1.0,85,0.00,,,0.00,Wunderground v.1.15,2013-07-18 00:45:00,
2013-07-17 20:52:00,81.3,77.0,29.20,NNW,339,0.0,3.0,85,0.00,,,0.00,weatherlink.com 1.10,2013-07-18 00:52:00,
2013-07-17 21:00:00,81.4,76.5,29.20,North,355,0.0,0.0,85,0.00,,,0.00,Wunderground v.1.15,2013-07-18 01:00:00,
2013-07-17 21:07:00,81.2,77.0,29.20,North,355,0.0,1.0,86,0.00,,,0.00,weatherlink.com 1.10,2013-07-18 01:07:00,
2013-07-17 21:15:00,80.9,72.2,29.22,NNW,336,3.0,4.0,75,0.00,,,0.00,Wunderground v.1.15,2013-07-18 01:15:00,
2013-07-17 21:20:00,80.5,70.6,29.22,West,277,5.0,5.0,72,0.00,,,0.00,Wunderground v.1.15,2013-07-18 01:20:00,
2013-07-17 21:30:00,78.2,69.6,29.22,WNW,301,5.0,5.0,75,0.67,,,0.06,Wunderground v.1.15,2013-07-18 01:30:00,
2013-07-17 21:35:00,75.7,68.7,29.22,North,360,5.0,5.0,79,0.34,,,0.10,Wunderground v.1.15,2013-07-18 01:35:00,
2013-07-17 21:40:00,73.9,68.8,29.21,NNW,329,2.0,2.0,84,0.14,,,0.11,Wunderground v.1.15,2013-07-18 01:40:00,
2013-07-17 21:50:00,71.4,67.0,29.20,North,360,1.0,1.0,86,0.04,,,0.11,Wunderground v.1.15,2013-07-18 01:50:00,
2013-07-17 21:55:00,70.6,67.2,29.20,NNW,333,0.0,1.0,89,0.00,,,0.11,Wunderground v.1.15,2013-07-18 01:55:00,
2013-07-17 22:00:00,70.1,67.3,29.20,North,360,0.0,0.0,91,0.00,,,0.11,Wunderground v.1.15,2013-07-18 02:00:00,
2013-07-17 22:07:00,69.9,68.0,29.20,NNW,332,0.0,2.0,92,0.11,,,0.11,weatherlink.com 1.10,2013-07-18 02:07:00,
2013-07-17 22:15:00,69.8,67.7,29.20,NNW,332,0.0,0.0,93,0.00,,,0.11,Wunderground v.1.15,2013-07-18 02:15:00,
2013-07-17 22:22:00,69.8,68.0,29.20,NNW,332,0.0,1.0,94,0.11,,,0.11,weatherlink.com 1.10,2013-07-18 02:22:00,
2013-07-17 22:30:00,69.7,67.9,29.20,NNW,332,0.0,0.0,94,0.00,,,0.11,Wunderground v.1.15,2013-07-18 02:30:00,
2013-07-17 22:37:00,70.1,69.0,29.21,NNW,331,2.0,3.0,95,0.00,,,0.11,weatherlink.com 1.10,2013-07-18 02:37:00,
2013-07-17 22:45:00,70.0,68.2,29.22,NNW,332,2.0,16.0,94,0.00,,,0.11,Wunderground v.1.15,2013-07-18 02:45:00,
2013-07-17 22:50:00,69.9,68.1,29.25,North,355,2.0,16.0,94,0.00,,,0.11,Wunderground v.1.15,2013-07-18 02:50:00,
2013-07-17 23:00:00,69.8,67.7,29.25,NW,314,2.0,3.0,93,0.00,,,0.11,Wunderground v.1.15,2013-07-18 03:00:00,
2013-07-17 23:07:00,69.8,68.0,29.24,WSW,241,1.0,4.0,93,0.00,,,0.11,weatherlink.com 1.10,2013-07-18 03:07:00,
2013-07-17 23:15:00,69.7,67.9,29.23,WSW,242,1.0,1.0,94,0.00,,,0.11,Wunderground v.1.15,2013-07-18 03:15:00,
2013-07-17 23:20:00,69.7,67.9,29.23,WSW,241,0.0,0.0,94,0.00,,,0.11,Wunderground v.1.15,2013-07-18 03:20:00,
2013-07-17 23:25:00,69.8,68.3,29.24,SW,217,0.0,1.0,95,0.00,,,0.11,Wunderground v.1.15,2013-07-18 03:25:00,
2013-07-17 23:30:00,69.9,68.4,29.24,SSW,211,0.0,0.0,95,0.00,,,0.11,Wunderground v.1.15,2013-07-18 03:30:00,
2013-07-17 23:37:00,69.9,69.0,29.24,SSW,194,1.0,2.0,95,0.01,,,0.12,weatherlink.com 1.10,2013-07-18 03:37:00,
2013-07-17 23:45:00,70.0,68.5,29.24,SSW,198,0.0,2.0,95,0.00,,,0.12,Wunderground v.1.15,2013-07-18 03:45:00,
2013-07-17 23:51:00,70.1,69.0,29.24,SSW,201,0.0,2.0,95,0.01,,,0.12,weatherlink.com 1.10,2013-07-18 03:51:00,